Weather in Hiroshima

Japan     34°23′07″N   132°27′16″E
temp.,
°C
wind,
m/s
gust,
m/s
humid.,
%
clouds,
%
prec.,
mm/h
press.,
hPa
HPBL,
m
22 january, sat
sat2200:00−1n2284100 0.0 102929
03:00−2nne22835 0.0 102939
06:00−2nne228429 0.0 102946
09:00+1nne22655 0.0 1029247
12:00+7s11425 0.0 1028868
15:00+7s214514 0.0 1024768
18:00+1wsw117612 0.0 102511
21:000nne228047 0.0 102524
23 january, sun
sun2300:000n1180100 0.0 102515
03:00+2nne1176100 0.1 102426
06:00+2nne2287100 0.8 102373
09:00+2nne2396100 5.1 1023123
12:00+3nne2397100 6.8 1021158
15:00+3nne2398100 13.8 1019124
18:00+3nne2398100 6.9 101882
21:00+4nne2497100 9.4 1019117
24 january, mon
mon2400:00+2n34955 0.1 101974
03:00+3n2593100 0.1 1018204
06:00+3n3592100 0.0 1018259
09:00+4n368314 0.0 1020549
12:00+6n356327 0.0 10201091
15:00+8nne35578 0.0 10181123
18:00+3n238091 0.0 102046
21:00+1n2286100 0.0 102143
25 january, tue
tue2500:00+1nne2385100 0.0 102069
03:00+1nne228483 0.0 102040
06:000nne228392 0.0 102029
09:00+3ne1271100 0.0 1020186
12:00+8ssw115774 0.0 1019768
15:00+9sse125545 0.0 1017760
18:00+4n00795 0.0 101911
21:00+3n21845 0.0 102018
26 january, wed
wed2600:00+2n118459 0.0 102015
03:00+2n1182100 0.0 101911
06:00+4n1180100 0.0 101912
09:00+5n0084100 0.1 102120
12:00+7n138095 0.1 1020500
15:00+8wnw57545 0.1 10191334
18:00+3nw22745 0.0 102126
21:00+1nnw11795 0.0 102315